www.pogodaiklimat.ru

Погода и климат >> Архив погоды >> Ирак >> Erbeel


ПОГОДА в Erbeel

  • Прогноз погоды в Erbeel
  • Монитор погоды в Erbeel
  • Климат города

АРХИВ ПОГОДЫ в Erbeel

Время (UTC), дата Ветер
(напр.,м/с)
 
Видим.   Явления Облачность Т
(С)
Тd
(С)
f
(%)
Тe
(С)
Тes
(С)
Комфортность P
(гПа)
Po
(гПа)
Тmin
(С)
Tmax
(С)
R
(мм)
R24
(мм)
S
(см)
09 19.05 В 1 9000 м мгла 8/1 750 м
[Cu hum Ac trans]
+36.5 +12.4 24 +36 +48 очень
жарко
1006.4 1006.0
12 19.05 Ю 2 9000 м мгла 8/8 750 м
[Cu med, cong]
+38.8 +11.1 19 +38 +40 очень
жарко
1004.4 1004.0
15 19.05 Ю 2 8000 м мгла {гроза} 8/8 750 м
[Cu hum]
+35.5 +12.5 25 +35 +36 очень
жарко
1003.2 1003.0
18 19.05 Ю 3 10 км зарница {гроза} 8/4 750 м
[Cu Sc]
+34.0 +9.9 23 +33 +33 жарко 1005.0 1005.0 +39.0 0.2
03 20.05 ЮВ 1 9000 м гроза, ливневой дождь 9/0 600 м
[Ac As]
+27.5 +15.3 47 +30 +31 жарко 1005.9 1006.0
06 20.05 СЗ 2 6000 м мгла {гроза, ливн. осадки} 9/0
[As op]
+24.5 +13.9 52 +27 +30 жарко 1007.8 1008.0 +24.3 0.6
06 21.05 З 4 8000 м мгла {ливн. осадки} 9/9 660 м
[Cu Sc]
+21.5 +11.1 52 +23 +24 комфорт 1008.6 1009.0 +19.0 0.0
09 21.05 З 4 9000 м мгла {ливн. осадки} 6/6 660 м
[Cu Sc]
+24.4 +16.4 61 +28 +33 душно 1008.5 1009.0
12 21.05 З 8 9000 м пыльный позёмок 5/5 660 м
[Cu Sc]
+25.5 +9.9 37 +26 +27 жарко 1007.6 1008.0
18 21.05 СЗ 4 10 км 3/1 660 м
[Sc diur, vesp Ac trans]
+22.8 +9.9 44 +25 +25 комфорт 1008.9 1009.0 +27.2
03 22.05 штиль 0 10 км ясно +18.2 +10.9 62 +18 +20 1011.6 1012.0
06 22.05 Ю 1 10 км 1/1 750 м
[Cu hum]
+24.0 +10.8 43 +25 +38 комфорт 1011.9 1012.0 +16.7
09 22.05 Ю 2 10 км 1/1 840 м
[Cu hum]
+27.5 +9.7 33 +28 +47 жарко 1011.5 1012.0
15 22.05 З 3 10 км 1/1 840 м
[Cu hum]
+28.6 +11.6 35 +29 +30 жарко 1009.3 1009.0
18 22.05 Ю 1 10 км 4/0
[]
+26.1 +11.0 39 +27 +27 жарко 1010.7 1011.0 +29.8
03 23.05 В 4 9000 м мгла 6/0
[Ac lent Cs]
+23.1 +9.3 41 +25 +25 комфорт 1010.8 1011.0
06 23.05 В 5 9000 м мгла ясно +28.3 +11.6 35 +29 +35 жарко 1010.5 1011.0 +20.5
09 23.05 Ю 3 9000 м мгла 6/1
[Cu hum Cs]
+31.7 +12.2 30 +32 +46 жарко 1009.9 1010.0
12 23.05 Ю 2 9000 м мгла 9/1
[Cu med, cong Ac inh Cs]
+32.5 +11.5 28 +33 +39 жарко 1007.4 1007.0
18 23.05 Ю 2 9000 м мгла 4/0
[Ac trans]
+28.6 +11.4 34 +29 +29 жарко 1006.9 1007.0 +33.2
18 24.05 З 3 10 км ясно +26.0 +9.9 36 +27 +27 жарко 1012.5 1013.0 +30.3
06 25.05 Ю 2 10 км ясно +25.0 +10.4 40 +26 +38 жарко 1015.0 1015.0 +17.0
09 25.05 С 1 10 км ясно +27.5 +9.7 33 +28 +52 опасность
солнечного
удара
1014.3 1014.0
12 25.05 З 5 10 км ясно +30.5 +9.3 27 +30 +37 жарко 1013.0 1013.0
15 25.05 З 4 10 км 1/0
[Ci sp]
+30.0 +9.8 29 +30 +31 жарко 1012.3 1012.0
18 25.05 С 2 10 км 3/1 660 м
[Sc diur, vesp Ci sp]
+25.6 +7.1 31 +26 +26 жарко 1013.1 1013.0 +30.5

 

Местоположение метеостанции Erbeel (Ирак): широта 36.15 долгота 44.00 высота над уровнем моря 420 м.

В архиве по умолчанию представлена погода в Erbeel за последнюю неделю. Архивные данные за месяц целиком и за предыдущие месяцы, начиная с января 2011 года, Вы можете получить, выбрав интересующий диапазон дат из раскрывающегося списка и нажав кнопку "Ввод!".

Внимание! Время в таблицах - всемирное. Для получения местного времени необходимо прибавить поправку, которая в Erbeel равна 3 ч.

Смотрите также архив погоды в соседних городах и на ближайших метеорологических станциях:

Погода в Salahadin (Ирак) (31 км)
Погода в Makhmoor (Ирак) (57 км)
Погода в Aqraa (Ирак) (68 км)
Погода в Mosul (Ирак) (79 км)
Погода в Kirkuk (Ирак) (84 км)
Погода в Chamchamal (Ирак) (103 км)
Погода в Dohuk (Ирак) (120 км)
Погода в Baiji (Ирак) (144 км)
Погода в Sulaimaniya (Ирак) (147 км)
Погода в Tuz (Ирак) (153 км)

Пояснения к столбцам:

Ветер - указаны скорость ветра в м/с - средняя за 10 мин, порывы в срок и между сроками (в фигурных скобках) и направление, откуда дует ветер: С - северный, СВ - северо-восточный, В - восточный, ЮВ - юго-восточный, Ю - южный, ЮЗ - юго-западный, З - западный, СЗ - северо-западный.
Видимость - горизонтальная дальность видимости в метрах или километрах. При видимости от 1 до 10 км при отсутствии осадков обычно наблюдается дымка, при ухудшении видимости до 1 км и менее - туман. В сухую погоду видимость может ухудшаться дымом, пылью или мглою.
Явления - указаны атмосферные явления, наблюдавшиеся в срок или в последний час перед сроком; фигурными скобками обозначены явления, наблюдавшиеся между сроками (за 1-3 часа до срока); квадратными скобками обозначены град или гололедные отложения с указанием их диаметра в мм.
Облачность - указаны через наклонную черту общая и нижняя облачность в баллах и высота нижней границы облаков в метрах; квадратными скобками обозначены формы облаков: Ci - перистые, Cs - перисто-слоистые, Cc - перисто-кучевые, Ac - высококучевые, As - высокослоистые, Sc - слоисто-кучевые, Ns - слоисто-дождевые, Cu - кучевые, Cb - кучево-дождевые. Подробнее классификацию облаков см. в Атласе облаков (PDF).
T - Температура воздуха - температура, измеренная на высоте 2 м над землей.
Td - Температура точки росы - температура, при понижении до которой содержащийся в воздухе водяной пар достигнет насыщения.
f - Относительная влажность воздуха - влажноcть воздуха, измеренная на высоте 2 м над землей.
Te - Эффективная температура - температура, которую ощущает одетый по сезону человек в тени. Характеристика душности погоды. При расчете учитывается влияние влажности воздуха и скорости ветра на теплоощущения человека.
Tes - Эффективная температура на солнце - температура, которую ощущает человек, с поправкой на солнечный нагрев. Характеристика знойности погоды. Зависит от высоты солнца над горизонтом, облачности и скорости ветра. Ночью, в пасмурную погоду, а также при ветре 12 м/с и более поправка равна нулю.
P - Атмосферное давление - приведенное к уровню моря атмосферное давление.
Po - Атмосферное давление - измеренное на уровне метеостанции атмосферное давление.
Tmin - Минимальная температура - минимум температуры воздуха на высоте 2 м над землей.
Tmax - Максимальная температура - максимум температуры воздуха на высоте 2 м над землей.
R - Количество осадков - Количество выпавших осадков за период времени, мм. При наведении курсора мыши на число - период времени, за который выпало указанное количество осадков.
R24 - Количество осадков - Количество выпавших осадков за 24 часа, мм.
S - Снежный покров - Высота снежного покрова, см. При наведении курсора мыши на число - состояние снежного покрова и степень покрытия местности в баллах.